Change the Weather History Date:

Wednesday, May 30, 2012

  Actual Average Record
Temperature  
Mean Temperature 59 °F 64 °F  
Max Temperature 71 °F 74 °F 94 °F (1942)
Min Temperature 47 °F 53 °F 34 °F (1930)
Degree Days  
Heating Degree Days 6 4  
Month to date heating degree days 104 220  
Since 1 July heating degree days 5063 6251  
Cooling Degree Days 0 3  
Month to date cooling degree days 112 44  
Year to date cooling degree days 158 54  
Growing Degree Days 10 (Base 50)    
Moisture  
Dew Point 45 °F    
Average Humidity 62    
Maximum Humidity 83    
Minimum Humidity 40    
Precipitation  
Precipitation 0.00 in 0.14 in 1.53 in (2004)
Month to date precipitation 1.51 3.70  
Year to date precipitation 10.67 13.59  
Snow  
Snow 0.00 in - - ()
Month to date snowfall 0.0  
Snow Depth 0.00 in    
Sea Level Pressure  
Sea Level Pressure 29.89 in    
Wind  
Wind Speed 8 mph (NNW)    
Max Wind Speed 20 mph    
Max Gust Speed 29 mph    
Visibility 10 miles    
Events      
T = Trace of Precipitation, MM = Missing Value Source: NWS Daily Summary

Daily Weather History Graph

Daily Weather History Graph

Search for Another Location

Airport or City:

Trip Planner

Search our weather history database for the weather conditions in past years. The results will help you decide how hot, cold, wet, or windy it might be!

Date:

Astronomy

May. 30, 2012 Rise Set
Actual Time 6:13 AM EDT 9:12 PM EDT
Civil Twilight 5:40 AM EDT 9:45 PM EDT
Nautical Twilight 4:58 AM EDT 10:28 PM EDT
Astronomical Twilight 4:09 AM EDT 11:17 PM EDT
Moon 3:46 PM EDT (5/30) 2:42 AM EDT (5/30)
Length of Visible Light 16h 05m
Length of Day
14h 58m
Waxing Gibbous, 70% of the Moon is Illuminated
May 30
Waxing Gibbous
Jun 4
Full
Jun 11
Last Quarter
Jun 19
New
Jun 26
First Quarter

Hourly Weather History & Observations

Time (EDT) Temp. Dew Point Humidity Pressure Visibility Wind Dir Wind Speed Gust Speed Precip Events Conditions
12:54 AM 60.1 °F 45.0 °F 57% 29.85 in 10.0 mi Calm Calm - N/A   Clear
1:54 AM 57.9 °F 46.0 °F 65% 29.86 in 10.0 mi Calm Calm - N/A   Clear
2:54 AM 54.0 °F 46.0 °F 75% 29.86 in 10.0 mi Calm Calm - N/A   Clear
3:54 AM 53.1 °F 46.0 °F 77% 29.86 in 10.0 mi Calm Calm - N/A   Clear
4:54 AM 52.0 °F 45.0 °F 77% 29.87 in 10.0 mi Calm Calm - N/A   Clear
5:54 AM 52.0 °F 46.0 °F 80% 29.87 in 10.0 mi Calm Calm - N/A   Clear
6:54 AM 52.0 °F 46.0 °F 80% 29.88 in 10.0 mi Calm Calm - N/A   Clear
7:54 AM 60.1 °F 48.9 °F 67% 29.87 in 10.0 mi Calm Calm - N/A   Clear
8:54 AM 64.9 °F 46.0 °F 50% 29.87 in 10.0 mi SW 6.9 mph - N/A   Clear
9:54 AM 66.0 °F 45.0 °F 47% 29.88 in 10.0 mi NW 5.8 mph - N/A   Mostly Cloudy
10:54 AM 69.1 °F 46.0 °F 44% 29.87 in 10.0 mi NW 13.8 mph - N/A   Partly Cloudy
11:54 AM 68.0 °F 45.0 °F 43% 29.88 in 10.0 mi NW 11.5 mph - N/A   Mostly Cloudy
12:54 PM 69.1 °F 46.0 °F 44% 29.88 in 10.0 mi NW 9.2 mph - N/A   Mostly Cloudy
1:54 PM 70.0 °F 45.0 °F 41% 29.89 in 10.0 mi NNW 18.4 mph 24.2 mph N/A   Scattered Clouds
2:54 PM 70.0 °F 45.0 °F 41% 29.89 in 10.0 mi WNW 13.8 mph 20.7 mph N/A   Partly Cloudy
3:54 PM 69.1 °F 45.0 °F 42% 29.88 in 10.0 mi NW 15.0 mph - N/A   Scattered Clouds
4:54 PM 68.0 °F 46.9 °F 47% 29.90 in 10.0 mi NNW 17.3 mph 24.2 mph N/A   Clear
4:56 PM 68.0 °F 46.4 °F 46% 29.90 in 10.0 mi NNW 13.8 mph 24.2 mph N/A   Scattered Clouds
5:54 PM 66.9 °F 46.0 °F 47% 29.91 in 10.0 mi North 15.0 mph - N/A   Scattered Clouds
6:54 PM 64.9 °F 44.1 °F 47% 29.91 in 10.0 mi North 12.7 mph - N/A   Clear
7:54 PM 62.1 °F 43.0 °F 50% 29.93 in 10.0 mi NNW 15.0 mph - N/A   Clear
8:54 PM 59.0 °F 43.0 °F 55% 29.95 in 10.0 mi North 11.5 mph - N/A   Clear
9:54 PM 55.0 °F 44.1 °F 67% 29.96 in 10.0 mi North 10.4 mph - N/A   Clear
10:54 PM 52.0 °F 44.1 °F 74% 29.96 in 10.0 mi North 4.6 mph - N/A   Clear
11:54 PM 51.1 °F 44.1 °F 77% 29.96 in 10.0 mi Calm Calm - N/A   Clear